sat.trackr.live / text

‹ back to catalog

PHI 1

NORAD 66775 · 2025-276DP

PAYLOAD ACTIVE UNKNOWN

§ Identity

Operator
Country
TBD
Launch date
2025-11-28
Launch site
AFWTR
Launch vehicle
Mass (kg)
RCS (m²)

External: N2YO · Heavens-Above · Gunter

§ Orbital elements

Epoch: 2026-05-25T03:20:34.769184Z

Period
94.68 min
Inclination
97.4136°
Eccentricity
0.0001255
Mean motion
15.20978367 rev/d
Perigee alt
502.0 km
Apogee alt
503.8 km
Semi-major
6,881.0 km
B*
2.7376e-4
RAAN
219.2604°
Arg perigee
162.8845°
Mean anomaly
197.2433°
Rev number
2,694

§ Raw data

PHI 11 66775U 25276DP  26145.13929131  .00005999  00000+0  27376-3 0  99992 66775  97.4136 219.2604 0001255 162.8845 197.2433 15.20978367 26942

JSON: /api/v1/satellites/66775 · /tle

For live sub-satellite position, see the globe view (requires WebGL).

§ Visibility from observer

Set your observer location to see the next 7 days of passes ≥ 10°. The values pass through the URL so the page stays shareable.

No JS? Fill the form by hand. The geolocation button needs JavaScript.